Weather History for St. Eustatius, St. Eustatius

Change the Weather History Date:

Tuesday, November 1, 2011

  Actual Average Record
Temperature  
Mean Temperature 81 °F -  
Max Temperature 85 °F 83 °F 89 °F (2003)
Min Temperature 77 °F 77 °F 77 °F (1996)
Cooling Degree Days 16    
Growing Degree Days 31 (Base 50)    
Moisture  
Dew Point 74 °F    
Average Humidity 80    
Maximum Humidity 94    
Minimum Humidity 60    
Precipitation  
Precipitation 0.00 in - - ()
Sea Level Pressure  
Sea Level Pressure 29.92 in    
Wind  
Wind Speed 6 mph ()    
Max Wind Speed 10 mph    
Max Gust Speed -    
Visibility 8.5 miles    
Events Rain    
Averages and records for this station are not official NWS values.
T = Trace of Precipitation, MM = Missing Value Source: Averaged Metar Reports

Daily Weather History Graph

Daily Weather History Graph

Search for Another Location

Airport:

Trip Planner

Search our weather history database for the weather conditions in past years. The results will help you decide how hot, cold, wet, or windy it might be!

Date:

Astronomy

Nov. 01, 2011 Rise Set
Actual Time 6:10 AM AST 5:40 PM AST
Civil Twilight 5:48 AM AST 6:02 PM AST
Nautical Twilight 5:22 AM AST 6:28 PM AST
Astronomical Twilight 4:56 AM AST 6:54 PM AST
Moon 11:44 AM AST (11/1) 11:23 PM AST (11/1)
Length of Visible Light 12h 14m
Length of Day
11h 29m
Waxing Crescent, 39% of the Moon is Illuminated
Nov 1
Waxing Crescent
Nov 2
First Quarter
Nov 10
Full
Nov 18
Last Quarter
Nov 25
New

Hourly Weather History & Observations

Time (AST) Temp. Heat Index Dew Point Humidity Pressure Visibility Wind Dir Wind Speed Gust Speed Precip Events Conditions
12:00 AM 80.6 °F 85.4 °F 73.4 °F 79% 29.92 in - ENE 8.1 mph - N/A   Unknown
2:00 AM 79 °F - 73 °F 77%  in - East 6.9 mph - -   Clear
2:00 AM 78.8 °F - 73.4 °F 83% 29.89 in - ENE 9.2 mph - N/A   Unknown
3:00 AM 78.8 °F - 73.4 °F 83% 29.89 in - ENE 6.9 mph - N/A   Unknown
4:00 AM 78.8 °F - 73.4 °F 83% 29.89 in - ENE 4.6 mph - N/A   Unknown
5:00 AM 78.8 °F - 73.4 °F 83% 29.89 in - ENE 5.8 mph - N/A   Unknown
6:00 AM 78.8 °F - 73.4 °F 83% 29.92 in - East 4.6 mph - N/A   Unknown
7:00 AM 78.8 °F - 75.2 °F 89% 29.92 in 6.2 mi ESE 2.3 mph - N/A Rain Light Rain
8:00 AM 82 °F - 75 °F 75% 29.94 in 12 mi ESE 5.8 mph - -   Scattered Clouds
8:00 AM 82.4 °F 89.5 °F 75.2 °F 79% 29.92 in 6.2 mi East 5.8 mph - N/A   Partly Cloudy
9:00 AM 84.2 °F 92.3 °F 75.2 °F 74% 29.95 in - East 5.8 mph - N/A   Unknown
10:00 AM 84.2 °F 90.9 °F 73.4 °F 70% 29.95 in 6.2 mi East 8.1 mph - N/A   Partly Cloudy
11:00 AM 85 °F - 73 °F 60% 29.95 in 17 mi East 8.1 mph - -   Partly Cloudy
11:00 AM 84.2 °F 90.9 °F 73.4 °F 70% 29.95 in 6.2 mi ENE 9.2 mph - N/A   Scattered Clouds
12:00 PM 84.2 °F 92.3 °F 75.2 °F 74% 29.92 in 6.2 mi East 8.1 mph - N/A   Partly Cloudy
1:00 PM 82.4 °F 89.5 °F 75.2 °F 79% 29.92 in 6.2 mi ENE 10.4 mph - N/A   Mostly Cloudy
2:00 PM 82 °F - 75 °F 73% 29.91 in 16 mi ENE 8.1 mph - -   Partly Cloudy
2:00 PM 82.4 °F 89.5 °F 75.2 °F 79% 29.92 in 6.2 mi NE 9.2 mph - N/A   Scattered Clouds
3:00 PM 84.2 °F 90.9 °F 73.4 °F 70% 29.89 in 6.2 mi ENE 8.1 mph - N/A   Scattered Clouds
5:00 PM 82 °F - 74 °F 72% 29.90 in 19 mi East 6.9 mph - -   Partly Cloudy
5:00 PM 82.4 °F 89.5 °F 75.2 °F 79% 29.89 in 6.2 mi ENE 6.9 mph - N/A   Scattered Clouds
7:00 PM 78.8 °F - 75.2 °F 89% 29.92 in 6.2 mi East 3.5 mph - N/A   Scattered Clouds
8:00 PM 78 °F - 75 °F 88% 29.94 in 6 mi Calm Calm - -   Partly Cloudy
8:00 PM 78.8 °F - 75.2 °F 89% 29.95 in 6.2 mi Calm Calm - N/A   Scattered Clouds
9:00 PM 77.0 °F - 75.2 °F 94% 29.95 in - Variable 2.3 mph - N/A   Unknown
11:00 PM 78 °F - 76 °F 91%  in 6 mi East 4.6 mph - -   Clear
11:00 PM 78.8 °F - 75.2 °F 89% 29.92 in - ENE 4.6 mph - N/A   Unknown